Location: ?�kov
(49.4404°N, 15.1201°E)
Time: 08:40:21
(UTC+00:00)

STARLINK-1257 - Pass Details

Date: 07 June 2020
Orbit: 548 x 551 km, 53.0° (Epoch: 15 July)

Event Time Altitude Azimuth Distance (km) Brightness Sun altitude
Exits shadow 22:39:53 27° 125° (SE) 1,050 4.7 -17.7°
Drops below altitude 10° 22:42:53 10° 80° (E) 1,803 6.3 -17.7°
Enters shadow 23:46:19 -57° 244° (WSW) 11,301 10.2 -17.0°
Maximum altitude 00:18:29 82° 339° (NNW) 551 3.6 -15.6°
